Date String (YYYY-MM-DD hh:mm:ss) UTC,Instrument flags,absolute air pressure of the measurement (hPa),sample flow rate (lpm),inlet stack bypass flow (lpm),air temperature of the measurement (°C),ambient temperature measured by the external sensor (°C),aerosol sample conditioner tube jacket temperature (°C),OPC LED temperature (°C),internal box temperature (°C),relative humidity of the measurement (%),span deviation,mass concentration of particles derived from Lorenz-Mie calculation of OPC scattering (μg/m³),mass concentration of particles derived from Lorenz-Mie calculation of OPC scattering (μg/m³),mass concentration of particles derived from Lorenz-Mie calculation of OPC scattering (μg/m³)
DateTimeUTC,F1_M11,P_M11,Q1_M11,Q2_M11,T1_M11,T2_M11,T3_M11,T4_M11,T5_M11,U1_M11,ZSPAN_M11,X0_M11,X2_M11,X1_M11
2024-04-16 02:00:00,SystemResetWarning,0817.3,4.99,000.00,024.5,023.5,000.0,033.0,026.2,013.9,0000.0,0002.86,0000.29,0000.11
2024-04-16 02:01:00,SystemResetWarning,0817.3,5.00,000.00,024.5,023.5,000.0,033.0,026.2,013.8,0000.0,0002.85,0000.29,0000.12
2024-04-16 02:02:00,SystemResetWarning,0817.3,5.01,000.00,024.5,023.5,000.0,033.0,026.2,013.8,0000.0,0002.73,0000.27,0000.12
2024-04-16 02:03:00,SystemResetWarning,0817.4,5.00,000.00,024.4,023.5,000.0,033.0,026.2,013.9,0000.0,0002.52,0000.28,0000.13
2024-04-16 02:04:00,SystemResetWarning,0817.4,5.01,000.00,024.4,023.4,000.0,033.0,026.2,013.9,0000.0,0002.67,0000.30,0000.13
2024-04-16 02:05:00,SystemResetWarning,0817.4,4.99,000.00,024.4,023.4,000.0,033.0,026.1,014.0,0000.0,0002.20,0000.29,0000.12
2024-04-16 02:06:00,SystemResetWarning,0817.5,4.99,000.00,024.4,023.4,000.0,033.0,026.1,013.9,0000.0,0002.20,0000.31,0000.13
2024-04-16 02:07:00,SystemResetWarning,0817.4,5.00,000.00,024.4,023.4,000.0,033.0,026.1,014.1,0000.0,0001.83,0000.32,0000.13
2024-04-16 02:08:00,SystemResetWarning,0817.4,5.01,000.00,024.4,023.4,000.0,033.0,026.1,014.2,0000.0,0000.77,0000.29,0000.14
2024-04-16 02:09:00,SystemResetWarning,0817.4,5.01,000.00,024.4,023.4,000.0,032.9,026.1,014.2,0000.0,0000.81,0000.31,0000.15
2024-04-16 02:10:00,SystemResetWarning,0817.4,5.00,000.00,024.4,023.4,000.0,032.9,026.1,014.2,0000.0,0000.94,0000.33,0000.15
2024-04-16 02:11:00,SystemResetWarning,0817.3,4.99,000.00,024.4,023.4,000.0,032.9,026.1,014.2,0000.0,0000.93,0000.32,0000.16
2024-04-16 02:12:00,SystemResetWarning,0817.3,5.00,000.00,024.4,023.4,000.0,032.9,026.1,014.2,0000.0,0001.05,0000.33,0000.15
2024-04-16 02:13:00,SystemResetWarning,0817.3,4.99,000.00,024.4,023.4,000.0,032.9,026.1,014.2,0000.0,0001.14,0000.36,0000.15
2024-04-16 02:14:00,SystemResetWarning,0817.3,5.00,000.00,024.4,023.4,000.0,032.9,026.1,014.0,0000.0,0001.16,0000.36,0000.15
2024-04-16 02:15:00,SystemResetWarning,0817.2,5.00,000.00,024.3,023.4,000.0,032.9,026.1,014.0,0000.0,0001.08,0000.35,0000.15
2024-04-16 02:16:00,SystemResetWarning,0817.1,5.01,000.00,024.3,023.4,000.0,032.9,026.0,013.9,0000.0,0001.06,0000.35,0000.15
2024-04-16 02:17:00,SystemResetWarning,0817.1,5.00,000.00,024.3,023.3,000.0,032.9,026.0,014.0,0000.0,0001.29,0000.34,0000.15
2024-04-16 02:18:00,SystemResetWarning,0817.1,5.00,000.00,024.3,023.3,000.0,032.9,026.0,014.0,0000.0,0001.51,0000.31,0000.14
2024-04-16 02:19:00,SystemResetWarning,0817.1,5.00,000.00,024.3,023.3,000.0,032.8,026.0,014.1,0000.0,0001.49,0000.30,0000.13
2024-04-16 02:20:00,SystemResetWarning,0817.1,4.99,000.00,024.3,023.3,000.0,032.8,026.0,014.1,0000.0,0001.48,0000.29,0000.12
2024-04-16 02:21:00,SystemResetWarning,0817.1,4.99,000.00,024.3,023.3,000.0,032.8,026.0,014.1,0000.0,0002.05,0000.29,0000.12
2024-04-16 02:22:00,SystemResetWarning,0817.1,4.99,000.00,024.2,023.3,000.0,032.8,026.0,014.1,0000.0,0002.56,0000.28,0000.11
2024-04-16 02:23:00,SystemResetWarning,0817.0,5.02,000.00,024.2,023.2,000.0,032.8,025.9,014.0,0000.0,0002.55,0000.26,0000.11
2024-04-16 02:24:00,SystemResetWarning,0817.1,5.00,000.00,024.2,023.2,000.0,032.8,025.9,014.0,0000.0,0002.51,0000.24,0000.10
2024-04-16 02:25:00,SystemResetWarning,0817.1,5.00,000.00,024.2,023.2,000.0,032.8,025.9,014.1,0000.0,0002.54,0000.24,0000.10
2024-04-16 02:26:00,SystemResetWarning,0817.0,5.00,000.00,024.2,023.2,000.0,032.8,026.0,014.2,0000.0,0002.48,0000.23,0000.10
2024-04-16 02:27:00,SystemResetWarning,0816.9,4.99,000.00,024.2,023.2,000.0,032.7,026.0,014.0,0000.0,0002.50,0000.22,0000.09
2024-04-16 02:28:00,SystemResetWarning,0816.9,4.99,000.00,024.2,023.2,000.0,032.7,025.9,013.9,0000.0,0002.29,0000.25,0000.10
2024-04-16 02:29:00,SystemResetWarning,0817.0,5.01,000.00,024.2,023.2,000.0,032.7,025.9,013.9,0000.0,0002.12,0000.28,0000.10
2024-04-16 02:30:00,SystemResetWarning,0817.1,5.02,000.00,024.1,023.2,000.0,032.7,025.9,014.0,0000.0,0002.18,0000.30,0000.11
2024-04-16 02:31:00,SystemResetWarning,0817.0,5.00,000.00,024.1,023.2,000.0,032.7,025.9,014.1,0000.0,0002.15,0000.28,0000.11
2024-04-16 02:32:00,SystemResetWarning,0816.9,4.98,000.00,024.1,023.2,000.0,032.7,025.9,014.0,0000.0,0001.59,0000.28,0000.10
2024-04-16 02:33:00,SystemResetWarning,0816.9,5.00,000.00,024.1,023.1,000.0,032.7,025.9,014.0,0000.0,0000.98,0000.29,0000.11
2024-04-16 02:34:00,SystemResetWarning,0816.9,5.01,000.00,024.1,023.1,000.0,032.7,025.9,014.2,0000.0,0000.91,0000.33,0000.12
2024-04-16 02:35:00,SystemResetWarning,0817.0,5.01,000.00,024.1,023.1,000.0,032.6,025.8,014.0,0000.0,0000.83,0000.31,0000.12
2024-04-16 02:36:00,SystemResetWarning,0817.0,5.00,000.00,024.1,023.1,000.0,032.6,025.8,014.1,0000.0,0000.74,0000.31,0000.12
2024-04-16 02:37:00,SystemResetWarning,0817.0,4.99,000.00,024.1,023.1,000.0,032.6,025.9,014.1,0000.0,0000.73,0000.31,0000.12
2024-04-16 02:38:00,SystemResetWarning,0816.9,4.99,000.00,024.1,023.1,000.0,032.6,025.8,014.0,0000.0,0000.75,0000.33,0000.13
2024-04-16 02:39:00,SystemResetWarning,0816.9,5.01,000.00,024.1,023.1,000.0,032.6,025.8,013.9,0000.0,0001.75,0000.34,0000.13
2024-04-16 02:40:00,SystemResetWarning,0816.9,5.00,000.00,024.1,023.1,000.0,032.6,025.8,013.9,0000.0,0002.04,0000.32,0000.13
2024-04-16 02:41:00,SystemResetWarning,0816.8,5.01,000.00,024.1,023.1,000.0,032.6,025.8,013.8,0000.0,0002.21,0000.33,0000.12
2024-04-16 02:42:00,SystemResetWarning,0816.8,5.00,000.00,024.0,023.1,000.0,032.6,025.7,013.7,0000.0,0003.08,0000.34,0000.12
2024-04-16 02:43:00,SystemResetWarning,0816.7,5.00,000.00,024.0,023.1,000.0,032.6,025.7,013.7,0000.0,0003.17,0000.37,0000.12
2024-04-16 02:44:00,SystemResetWarning,0816.6,4.99,000.00,024.0,023.0,000.0,032.5,025.6,013.6,0000.0,0003.19,0000.38,0000.12
2024-04-16 02:45:00,SystemResetWarning,0816.6,5.00,000.00,024.0,023.0,000.0,032.5,025.6,013.9,0000.0,0003.17,0000.37,0000.12
2024-04-16 02:46:00,SystemResetWarning,0816.6,5.00,000.00,024.0,023.0,000.0,032.5,025.6,014.2,0000.0,0003.28,0000.40,0000.12
2024-04-16 02:47:00,SystemResetWarning,0816.6,5.00,000.00,024.0,023.0,000.0,032.5,025.6,014.0,0000.0,0003.38,0000.43,0000.12
2024-04-16 02:48:00,SystemResetWarning,0816.4,5.00,000.00,024.0,023.0,000.0,032.5,025.6,014.1,0000.0,0003.37,0000.43,0000.12
2024-04-16 02:49:00,SystemResetWarning,0816.5,5.00,000.00,023.9,023.0,000.0,032.5,025.6,013.6,0000.0,0003.27,0000.40,0000.12
2024-04-16 02:50:00,SystemResetWarning,0816.3,5.00,000.00,023.9,023.0,000.0,032.5,025.5,013.6,0000.0,0002.09,0000.37,0000.12
2024-04-16 02:51:00,SystemResetWarning,0816.3,5.00,000.00,023.9,022.9,000.0,032.4,025.5,014.1,0000.0,0001.84,0000.37,0000.12
2024-04-16 02:52:00,SystemResetWarning,0816.3,5.00,000.00,023.9,022.9,000.0,032.4,025.5,014.0,0000.0,0001.88,0000.40,0000.12
2024-04-16 02:53:00,SystemResetWarning,0816.3,5.00,000.00,023.9,022.9,000.0,032.4,025.5,014.0,0000.0,0001.06,0000.44,0000.13
2024-04-16 02:54:00,SystemResetWarning,0816.1,5.00,000.00,023.8,022.8,000.0,032.4,025.5,014.0,0000.0,0000.94,0000.39,0000.13
2024-04-16 02:55:00,SystemResetWarning,0816.1,5.00,000.00,023.8,022.8,000.0,032.3,025.5,014.2,0000.0,0001.11,0000.40,0000.13
2024-04-16 02:56:00,SystemResetWarning,0816.2,5.01,000.00,023.8,022.8,000.0,032.3,025.4,013.6,0000.0,0002.68,0000.45,0000.14
2024-04-16 02:57:00,SystemResetWarning,0816.1,5.01,000.00,023.8,022.8,000.0,032.3,025.4,013.6,0000.0,0003.40,0000.45,0000.13
2024-04-16 02:58:00,SystemResetWarning,0816.2,4.99,000.00,023.8,022.8,000.0,032.3,025.4,013.8,0000.0,0003.31,0000.41,0000.13
2024-04-16 02:59:00,SystemResetWarning,0816.2,4.99,000.00,023.8,022.8,000.0,032.3,025.4,013.7,0000.0,0004.30,0000.46,0000.15
